#WRAP "C/2009 U5 (Grauer)" "iau/Ephemerides/Comets/"

C/2009 U5 (Grauer)

Orbital Elements

The following orbital elements are taken from MPEC 2009-W24:
C/2009 U5 (Grauer)
T 2010 July 14.924 TT                                   MPC
q   6.04624              (2000.0)            P               Q
                   Peri.   25.997       -0.803667       -0.466848
                   Node   121.179       +0.442485       -0.883454
e   1.0            Incl.   25.551       +0.397903       +0.039520
From 50 observations 2009 Oct. 23-Nov. 15.
An explanation of the orbital elements is available.

These orbital elements are also available in forms suitable for loading into a number of popular planetarium-type software programs.


Ephemeris

The following ephemeris is at intervals of five days. A daily ephemeris covering the same time interval is also available.

Personalized ephemerides for this (and other) objects may be generated using the Minor Planet & Comet Ephemeris Service.

Recent magnitude estimates for this comet (as reported to the ICQ) may be available.

Date    TT    R. A. (2000) Decl.     Delta      r     Elong.  Phase   m1    m2
2009 11 15    09 06.51   +18 23.6    6.046    6.277    99.0     9.0  18.9
2009 11 20    09 07.77   +18 31.9    5.959    6.268   103.8     8.8  18.8
2009 11 25    09 08.79   +18 41.7    5.873    6.259   108.6     8.6  18.8
2009 11 30    09 09.55   +18 52.9    5.790    6.250   113.6     8.3  18.8
2009 12 05    09 10.05   +19 05.6    5.710    6.241   118.6     8.0  18.7
2009 12 10    09 10.29   +19 19.8    5.633    6.233   123.6     7.6  18.7
2009 12 15    09 10.27   +19 35.3    5.560    6.225   128.8     7.1  18.7
2009 12 20    09 09.99   +19 52.2    5.493    6.216   134.0     6.5  18.6
2009 12 25    09 09.46   +20 10.3    5.430    6.208   139.3     5.9  18.6
2009 12 30    09 08.71   +20 29.5    5.373    6.201   144.6     5.3  18.6
2010 01 04    09 07.73   +20 49.6    5.323    6.193   149.9     4.6  18.5
2010 01 09    09 06.56   +21 10.5    5.279    6.186   155.3     3.8  18.5
2010 01 14    09 05.22   +21 32.0    5.242    6.178   160.6     3.0  18.5
2010 01 19    09 03.73   +21 53.8    5.213    6.171   165.8     2.2  18.5
2010 01 24    09 02.13   +22 15.6    5.191    6.164   170.7     1.5  18.5
2010 01 29    09 00.45   +22 37.3    5.177    6.158   174.2     0.9  18.5
2010 02 03    08 58.74   +22 58.7    5.171    6.151   173.5     1.0  18.5
2010 02 08    08 57.03   +23 19.4    5.173    6.145   169.4     1.7  18.5
2010 02 13    08 55.35   +23 39.3    5.182    6.139   164.4     2.5  18.5
2010 02 18    08 53.75   +23 58.3    5.199    6.133   159.2     3.3  18.5
2010 02 23    08 52.26   +24 16.0    5.223    6.127   153.9     4.1  18.5
2010 02 28    08 50.93   +24 32.5    5.254    6.122   148.6     4.8  18.5
2010 03 05    08 49.77   +24 47.6    5.291    6.116   143.4     5.5  18.5
2010 03 10    08 48.81   +25 01.2    5.335    6.111   138.2     6.2  18.5
2010 03 15    08 48.08   +25 13.3    5.384    6.106   133.0     6.8  18.5
2010 03 20    08 47.60   +25 23.8    5.438    6.101   128.0     7.4  18.5
2010 03 25    08 47.38   +25 32.8    5.496    6.097   123.0     7.9  18.6
2010 03 30    08 47.44   +25 40.3    5.559    6.092   118.0     8.3  18.6
2010 04 04    08 47.76   +25 46.3    5.624    6.088   113.2     8.7  18.6
2010 04 09    08 48.37   +25 50.8    5.693    6.084   108.4     9.0  18.6
2010 04 14    08 49.25   +25 53.9    5.763    6.080   103.7     9.2  18.6
2010 04 19    08 50.42   +25 55.6    5.836    6.077    99.1     9.4  18.7
2010 04 24    08 51.85   +25 56.0    5.909    6.073    94.6     9.5  18.7
2010 04 29    08 53.54   +25 55.2    5.983    6.070    90.2     9.5  18.7
2010 05 04    08 55.48   +25 53.1    6.057    6.067    85.8     9.5  18.7
2010 05 09    08 57.66   +25 49.9    6.131    6.064    81.5     9.5  18.8
2010 05 14    09 00.07   +25 45.6    6.204    6.062    77.3     9.4  18.8
2010 05 19    09 02.70   +25 40.3    6.276    6.059    73.1     9.2  18.8
2010 05 24    09 05.53   +25 34.0    6.346    6.057    69.0     9.0  18.8
2010 05 29    09 08.55   +25 26.8    6.415    6.055    64.9     8.7  18.9
2010 06 03    09 11.75   +25 18.7    6.481    6.053    60.9     8.4  18.9
2010 06 08    09 15.12   +25 09.7    6.544    6.052    57.0     8.1  18.9
2010 06 13    09 18.64   +25 00.0    6.605    6.050    53.1     7.7  18.9
2010 06 18    09 22.30   +24 49.6    6.663    6.049    49.3     7.3  18.9
2010 06 23    09 26.09   +24 38.5    6.717    6.048    45.5     6.9  19.0
2010 06 28    09 29.99   +24 26.9    6.767    6.047    41.8     6.4  19.0
2010 07 03    09 34.00   +24 14.6    6.814    6.047    38.1     6.0  19.0
2010 07 08    09 38.10   +24 01.9    6.857    6.046    34.5     5.5  19.0
2010 07 13    09 42.29   +23 48.7    6.896    6.046    30.9     5.0  19.0
 
2010 10 01    10 53.04   +20 09.7    6.888    6.071    32.8     5.1  19.0
2010 10 06    10 57.25   +19 59.4    6.848    6.074    36.5     5.6  19.0
2010 10 11    11 01.39   +19 50.1    6.804    6.077    40.3     6.1  19.0
2010 10 16    11 05.44   +19 41.8    6.757    6.081    44.2     6.6  19.0
2010 10 21    11 09.40   +19 34.6    6.705    6.085    48.1     7.0  19.0
2010 10 26    11 13.24   +19 28.7    6.650    6.089    52.0     7.4  19.0
2010 10 31    11 16.97   +19 24.1    6.592    6.093    56.0     7.8  18.9
2010 11 05    11 20.57   +19 20.9    6.532    6.098    60.1     8.1  18.9
2010 11 10    11 24.04   +19 19.2    6.468    6.102    64.2     8.4  18.9
2010 11 15    11 27.35   +19 19.1    6.402    6.107    68.4     8.7  18.9
2010 11 20    11 30.50   +19 20.6    6.335    6.112    72.6     8.9  18.9
2010 11 25    11 33.47   +19 23.9    6.266    6.117    76.8     9.0  18.9
2010 11 30    11 36.26   +19 29.0    6.196    6.123    81.2     9.2  18.8
2010 12 05    11 38.85   +19 36.0    6.125    6.128    85.6     9.2  18.8
2010 12 10    11 41.24   +19 44.9    6.055    6.134    90.0     9.2  18.8
2010 12 15    11 43.40   +19 55.6    5.984    6.140    94.5     9.2  18.8
2010 12 20    11 45.33   +20 08.3    5.915    6.146    99.0     9.1  18.7